• In Uzbekistan
  • List of Countries
  • For 7 days
  • Water Temperature
  • Satellite Maps
  • Weather Map
  • Weather Widgets
  • user-avatar
    Login

    Hourly Weather Mokhotlong

    Today, 11 December, Monday

    Time Temperature Precipitation Wind Pressure Humidity
    00:00 +9°C° 0.2 mm 2 mps 583 mmHg 92%
    01:00 +9°C° 0.2 mm 2 mps 583 mmHg 92%
    02:00 +9°C° 0.2 mm 2 mps 583 mmHg 92%
    03:00 +9°C° 0 mm 2 mps 583 mmHg 92%
    04:00 +9°C° 0 mm 2 mps 582 mmHg 92%
    05:00 +9°C° 0 mm 2 mps 582 mmHg 92%
    06:00 +11°C° 0 mm 3 mps 583 mmHg 83%
    07:00 +12°C° 0 mm 3 mps 584 mmHg 75%
    08:00 +14°C° 0 mm 3 mps 584 mmHg 66%
    09:00 +17°C° 0.2 mm 4 mps 585 mmHg 61%
    10:00 +17°C° 0.2 mm 5 mps 585 mmHg 56%
    11:00 +19°C° 0.2 mm 6 mps 585 mmHg 51%
    12:00 +20°C° 0.2 mm 7 mps 585 mmHg 46%
    13:00 +21°C° 0.2 mm 8 mps 585 mmHg 41%
    14:00 +22°C° 0.2 mm 9 mps 585 mmHg 35%
    15:00 +21°C° 0.6 mm 8 mps 585 mmHg 37%
    16:00 +21°C° 0.6 mm 8 mps 584 mmHg 39%
    17:00 +20°C° 0.6 mm 8 mps 583 mmHg 41%
    18:00 +17°C° 0 mm 6 mps 583 mmHg 47%
    19:00 +14°C° 0 mm 4 mps 582 mmHg 54%
    20:00 +13°C° 0 mm 2 mps 581 mmHg 60%
    21:00 +12°C° 0 mm 2 mps 581 mmHg 61%
    22:00 +11°C° 0 mm 1 mps 581 mmHg 63%
    23:00 +10°C° 0 mm 0 mps 581 mmHg 64%

    Tomorrow, 12 December, Tuesday

    Time Temperature Precipitation Wind Pressure Humidity
    00:00 +10°C° 0 mm 1 mps 581 mmHg 64%
    01:00 +10°C° 0 mm 1 mps 581 mmHg 64%
    02:00 +9°C° 0 mm 2 mps 580 mmHg 64%
    03:00 +9°C° 0 mm 2 mps 580 mmHg 60%
    04:00 +8°C° 0 mm 2 mps 580 mmHg 56%
    05:00 +8°C° 0 mm 2 mps 580 mmHg 52%
    06:00 +11°C° 0 mm 3 mps 581 mmHg 44%
    07:00 +14°C° 0 mm 4 mps 583 mmHg 37%
    08:00 +18°C° 0 mm 4 mps 584 mmHg 29%
    09:00 +20°C° 0 mm 5 mps 585 mmHg 27%
    10:00 +21°C° 0 mm 6 mps 585 mmHg 25%
    11:00 +23°C° 0 mm 7 mps 586 mmHg 23%
    12:00 +23°C° 0 mm 7 mps 586 mmHg 21%
    13:00 +24°C° 0 mm 8 mps 586 mmHg 20%
    14:00 +26°C° 0 mm 8 mps 585 mmHg 18%
    15:00 +24°C° 0 mm 8 mps 585 mmHg 19%
    16:00 +23°C° 0 mm 8 mps 585 mmHg 20%
    17:00 +23°C° 0 mm 7 mps 585 mmHg 21%
    18:00 +20°C° 0 mm 6 mps 584 mmHg 29%
    19:00 +17°C° 0 mm 4 mps 583 mmHg 37%
    20:00 +14°C° 0 mm 2 mps 582 mmHg 45%
    21:00 +14°C° 0 mm 2 mps 582 mmHg 49%
    22:00 +13°C° 0 mm 2 mps 582 mmHg 53%
    23:00 +12°C° 0 mm 1 mps 582 mmHg 57%

    Day after tomorrow, 13 December, Wednesday

    Time Temperature Precipitation Wind Pressure Humidity
    00:00 +12°C° 0 mm 1 mps 582 mmHg 61%
    01:00 +12°C° 0 mm 2 mps 582 mmHg 66%
    02:00 +10°C° 0 mm 2 mps 581 mmHg 70%
    03:00 +10°C° 0 mm 2 mps 581 mmHg 70%
    04:00 +10°C° 0 mm 2 mps 581 mmHg 70%
    05:00 +10°C° 0 mm 2 mps 581 mmHg 70%
    06:00 +13°C° 0 mm 2 mps 582 mmHg 58%
    07:00 +16°C° 0 mm 3 mps 583 mmHg 47%
    08:00 +18°C° 0 mm 3 mps 584 mmHg 35%
    09:00 +20°C° 0 mm 5 mps 584 mmHg 30%
    10:00 +21°C° 0 mm 7 mps 585 mmHg 26%
    11:00 +23°C° 0 mm 10 mps 585 mmHg 22%
    12:00 +24°C° 0 mm 10 mps 585 mmHg 20%
    13:00 +24°C° 0 mm 10 mps 584 mmHg 19%
    14:00 +26°C° 0 mm 11 mps 584 mmHg 17%
    15:00 +24°C° 0 mm 10 mps 584 mmHg 17%
    16:00 +23°C° 0 mm 10 mps 583 mmHg 16%
    17:00 +23°C° 0 mm 10 mps 583 mmHg 16%
    18:00 +20°C° 0 mm 8 mps 582 mmHg 20%
    19:00 +16°C° 0 mm 6 mps 582 mmHg 25%
    20:00 +14°C° 0 mm 4 mps 581 mmHg 29%
    21:00 +13°C° 0 mm 3 mps 581 mmHg 31%
    22:00 +12°C° 0 mm 3 mps 581 mmHg 33%
    23:00 +12°C° 0 mm 2 mps 581 mmHg 35%

    14 December, Thursday

    Time Temperature Precipitation Wind Pressure Humidity
    00:00 +12°C° 0 mm 2 mps 581 mmHg 39%
    01:00 +11°C° 0 mm 1 mps 581 mmHg 43%
    02:00 +10°C° 0 mm 1 mps 581 mmHg 47%
    03:00 +10°C° 0 mm 1 mps 581 mmHg 50%
    04:00 +10°C° 0 mm 1 mps 581 mmHg 54%
    05:00 +9°C° 0 mm 1 mps 581 mmHg 57%
    06:00 +11°C° 0 mm 1 mps 582 mmHg 55%
    07:00 +14°C° 0 mm 1 mps 584 mmHg 52%
    08:00 +16°C° 0 mm 2 mps 585 mmHg 49%
    09:00 +16°C° 0.1 mm 2 mps 585 mmHg 49%
    10:00 +17°C° 0.1 mm 3 mps 585 mmHg 49%
    11:00 +18°C° 0.1 mm 4 mps 586 mmHg 49%
    12:00 +17°C° 0.5 mm 5 mps 586 mmHg 48%
    13:00 +19°C° 0.5 mm 5 mps 585 mmHg 48%
    14:00 +19°C° 0.5 mm 6 mps 585 mmHg 47%
    15:00 +17°C° 0.7 mm 5 mps 585 mmHg 51%
    16:00 +15°C° 0.7 mm 5 mps 585 mmHg 55%
    17:00 +14°C° 0.7 mm 4 mps 584 mmHg 59%
    18:00 +13°C° 0.3 mm 3 mps 584 mmHg 68%
    19:00 +11°C° 0.3 mm 3 mps 584 mmHg 77%
    20:00 +10°C° 0.3 mm 2 mps 585 mmHg 85%
    21:00 +10°C° 0.1 mm 2 mps 585 mmHg 86%
    22:00 +9°C° 0.1 mm 2 mps 585 mmHg 87%
    23:00 +9°C° 0.1 mm 2 mps 585 mmHg 88%

    15 December, Friday

    Time Temperature Precipitation Wind Pressure Humidity
    00:00 +10°C° 0 mm 1 mps 585 mmHg 89%
    01:00 +9°C° 0 mm 1 mps 585 mmHg 90%
    02:00 +9°C° 0 mm 1 mps 585 mmHg 90%
    03:00 +9°C° 0 mm 1 mps 585 mmHg 91%
    04:00 +9°C° 0 mm 1 mps 585 mmHg 91%
    05:00 +8°C° 0 mm 1 mps 585 mmHg 92%
    06:00 +10°C° 0 mm 1 mps 586 mmHg 84%
    07:00 +11°C° 0 mm 1 mps 587 mmHg 77%
    08:00 +13°C° 0 mm 2 mps 587 mmHg 69%
    09:00 +14°C° 0 mm 2 mps 588 mmHg 63%
    10:00 +16°C° 0 mm 2 mps 588 mmHg 58%
    11:00 +17°C° 0 mm 3 mps 589 mmHg 52%
    12:00 +17°C° 0 mm 3 mps 589 mmHg 52%
    13:00 +18°C° 0 mm 3 mps 589 mmHg 51%
    14:00 +18°C° 0 mm 3 mps 588 mmHg 50%
    15:00 +18°C° 0.1 mm 3 mps 588 mmHg 54%
    16:00 +17°C° 0.1 mm 3 mps 588 mmHg 57%
    17:00 +16°C° 0.1 mm 2 mps 587 mmHg 60%
    18:00 +15°C° 0.1 mm 2 mps 587 mmHg 67%
    19:00 +14°C° 0.1 mm 2 mps 587 mmHg 74%
    20:00 +13°C° 0.1 mm 1 mps 586 mmHg 81%
    21:00 +12°C° 0 mm 1 mps 586 mmHg 83%
    22:00 +12°C° 0 mm 1 mps 586 mmHg 85%
    23:00 +11°C° 0 mm 1 mps 586 mmHg 87%

    16 December, Saturday

    Time Temperature Precipitation Wind Pressure Humidity
    00:00 +11°C° 0 mm 1 mps 586 mmHg 88%
    01:00 +11°C° 0 mm 1 mps 585 mmHg 88%
    02:00 +10°C° 0 mm 1 mps 585 mmHg 88%
    03:00 +10°C° 0 mm 1 mps 585 mmHg 88%
    04:00 +10°C° 0 mm 1 mps 585 mmHg 87%
    05:00 +10°C° 0 mm 1 mps 585 mmHg 87%
    06:00 +13°C° 0 mm 1 mps 586 mmHg 75%
    07:00 +15°C° 0 mm 1 mps 587 mmHg 64%
    08:00 +19°C° 0 mm 1 mps 589 mmHg 52%
    09:00 +20°C° 0 mm 1 mps 589 mmHg 49%
    10:00 +20°C° 0 mm 2 mps 589 mmHg 45%
    11:00 +23°C° 0 mm 2 mps 589 mmHg 41%
    12:00 +21°C° 0.1 mm 2 mps 588 mmHg 42%
    13:00 +22°C° 0.1 mm 1 mps 588 mmHg 44%
    14:00 +22°C° 0.1 mm 1 mps 587 mmHg 45%
    15:00 +21°C° 0.2 mm 1 mps 587 mmHg 48%
    16:00 +21°C° 0.2 mm 1 mps 586 mmHg 51%
    17:00 +20°C° 0.2 mm 1 mps 586 mmHg 54%
    18:00 +19°C° 0.2 mm 1 mps 586 mmHg 58%
    19:00 +18°C° 0.2 mm 1 mps 585 mmHg 62%
    20:00 +16°C° 0.2 mm 2 mps 585 mmHg 66%
    21:00 +16°C° 0 mm 2 mps 585 mmHg 68%
    22:00 +15°C° 0 mm 2 mps 585 mmHg 70%
    23:00 +15°C° 0 mm 2 mps 585 mmHg 72%
    Show more